Robstown, TX

10:05 AM CST on January 16, 2017 (GMT -0600)
Robstown

Weather History for KRBO - February, 2014

Change the Weather History Date:

Friday, February 28, 2014

  Actual Average (KCRP) Record (KCRP)
Temperature  
Mean Temperature 64 °F -  
Max Temperature 85 °F 69 °F 94 °F (1940)
Min Temperature 43 °F 50 °F 30 °F (1890)
Degree Days  
Heating Degree Days 1    
Growing Degree Days 14 (Base 50)    
Moisture  
Dew Point 55 °F    
Average Humidity 75    
Maximum Humidity 95    
Minimum Humidity 36    
Precipitation  
Precipitation 0.00 in - - ()
Sea Level Pressure  
Sea Level Pressure 29.88 in    
Wind  
Wind Speed 7 mph (South)    
Max Wind Speed 15 mph    
Max Gust Speed 24 mph    
Visibility 10 miles    
Events      
Averages and records for this station are not official NWS values.
T = Trace of Precipitation, MM = Missing Value Source: NWS Daily Summary

Daily Weather History Graph

Daily Weather History Graph

Search for Another Location

Airport or City:

Trip Planner

Search our weather history database for the weather conditions in past years. The results will help you decide how hot, cold, wet, or windy it might be!

Date:

Astronomy

Feb. 28, 2014 Rise Set
Actual Time 6:56 AM CST 6:30 PM CST
Civil Twilight 6:32 AM CST 6:54 PM CST
Nautical Twilight 6:05 AM CST 7:21 PM CST
Astronomical Twilight 5:38 AM CST 7:48 PM CST
Moon 6:10 AM CST (2/28) 6:07 PM CST (2/28)
Length of Visible Light 12h 21m
Length of Day
11h 34m
Waning Crescent, 1% of the Moon is Illuminated
Feb 28
Waning Crescent
Mar 1
New
Mar 8
First Quarter
Mar 16
Full
Mar 23
Last Quarter

Hourly Weather History & Observations

Time (CST) Temp. Windchill Dew Point Humidity Pressure Visibility Wind Dir Wind Speed Gust Speed Precip Events Conditions
12:10 AM 44.8 °F 42.4 °F 41.0 °F 87% 29.96 in 10.0 mi SSE 4.6 mph - N/A   Clear
12:35 AM 45.0 °F 42.6 °F 41.4 °F 87% 29.96 in 10.0 mi SE 4.6 mph - N/A   Clear
12:55 AM 44.1 °F 40.8 °F 40.8 °F 88% 29.95 in 10.0 mi ESE 5.8 mph - N/A   Clear
1:15 AM 43.9 °F 40.5 °F 41.0 °F 90% 29.94 in 10.0 mi SE 5.8 mph - N/A   Clear
1:35 AM 44.1 °F 42.5 °F 41.2 °F 90% 29.95 in 10.0 mi ESE 3.5 mph - N/A   Clear
1:55 AM 44.1 °F 41.5 °F 41.7 °F 91% 29.93 in 10.0 mi ESE 4.6 mph - N/A   Clear
2:15 AM 44.1 °F 41.5 °F 41.9 °F 92% 29.92 in 7.0 mi SE 4.6 mph - N/A   Clear
2:35 AM 44.8 °F 42.4 °F 42.8 °F 93% 29.92 in 7.0 mi SE 4.6 mph - N/A   Scattered Clouds
2:55 AM 45.5 °F 42.5 °F 43.5 °F 93% 29.91 in 10.0 mi ESE 5.8 mph - N/A   Mostly Cloudy
3:15 AM 47.7 °F - 45.7 °F 93% 29.89 in 10.0 mi SE 5.8 mph - N/A   Overcast
3:35 AM 50.0 °F - 47.7 °F 92% 29.89 in 10.0 mi SSE 5.8 mph - N/A   Overcast
3:55 AM 51.1 °F - 48.4 °F 90% 29.89 in 10.0 mi SE 3.5 mph - N/A   Overcast
4:15 AM 52.0 °F - 49.1 °F 90% 29.89 in 10.0 mi SE 4.6 mph - N/A   Mostly Cloudy
4:35 AM 51.1 °F - 48.6 °F 91% 29.88 in 10.0 mi SSE 5.8 mph - N/A   Scattered Clouds
4:55 AM 50.9 °F - 49.1 °F 94% 29.87 in 10.0 mi SSE 5.8 mph - N/A   Scattered Clouds
5:15 AM 50.2 °F - 48.2 °F 93% 29.87 in 10.0 mi SSE 5.8 mph - N/A   Scattered Clouds
5:35 AM 49.1 °F - 47.3 °F 93% 29.87 in 10.0 mi SE 6.9 mph - N/A   Scattered Clouds
5:55 AM 50.9 °F - 49.3 °F 94% 29.86 in 10.0 mi SSE 6.9 mph - N/A   Mostly Cloudy
6:15 AM 53.1 °F - 51.4 °F 94% 29.86 in 10.0 mi SSE 8.1 mph - N/A   Overcast
6:35 AM 52.3 °F - 50.4 °F 93% 29.86 in 10.0 mi SSE 6.9 mph - N/A   Scattered Clouds
6:55 AM 51.3 °F - 49.6 °F 94% 29.87 in 7.0 mi SSE 3.5 mph - N/A   Scattered Clouds
7:15 AM 50.2 °F - 48.7 °F 95% 29.88 in 5.0 mi SSW 3.5 mph - N/A   Mostly Cloudy
7:35 AM 51.1 °F - 49.8 °F 95% 29.90 in 7.0 mi WSW 3.5 mph - N/A   Mostly Cloudy
7:55 AM 53.8 °F - 52.0 °F 94% 29.91 in 7.0 mi SW 4.6 mph - N/A   Overcast
8:15 AM 56.3 °F - 53.2 °F 89% 29.92 in 10.0 mi SW 5.8 mph - N/A   Overcast
8:35 AM 57.2 °F - 52.9 °F 85% 29.93 in 10.0 mi SW 9.2 mph - N/A   Overcast
8:55 AM 57.4 °F - 53.1 °F 85% 29.93 in 10.0 mi SSW 6.9 mph - N/A   Overcast
9:15 AM 58.3 °F - 53.8 °F 85% 29.93 in 10.0 mi SSW 8.1 mph - N/A   Overcast
9:35 AM 59.4 °F - 54.9 °F 85% 29.94 in 10.0 mi South 11.5 mph - N/A   Overcast
9:55 AM 60.6 °F - 55.9 °F 85% 29.94 in 10.0 mi South 13.8 mph - N/A   Overcast
10:15 AM 61.5 °F - 56.5 °F 83% 29.94 in 10.0 mi South 12.7 mph - N/A   Overcast
10:35 AM 63.7 °F - 57.4 °F 80% 29.94 in 10.0 mi SSW 12.7 mph - N/A   Overcast
10:55 AM 66.9 °F - 58.1 °F 73% 29.94 in 10.0 mi SW 11.5 mph - N/A   Overcast
11:15 AM 69.1 °F - 58.3 °F 68% 29.94 in 10.0 mi SW 8.1 mph - N/A   Scattered Clouds
11:35 AM 71.2 °F - 58.5 °F 64% 29.92 in 10.0 mi SSW 8.1 mph - N/A   Clear
11:55 AM 74.7 °F - 58.5 °F 57% 29.91 in 10.0 mi SSW 8.1 mph - N/A   Clear
12:15 PM 78.6 °F - 57.9 °F 49% 29.90 in 10.0 mi SSW 12.7 mph 21.9 mph N/A   Clear
12:35 PM 79.2 °F - 57.4 °F 47% 29.90 in 10.0 mi SSW 12.7 mph 20.7 mph N/A   Clear
12:55 PM 79.7 °F - 57.2 °F 46% 29.89 in 10.0 mi SW 13.8 mph 24.2 mph N/A   Clear
1:15 PM 81.1 °F - 57.4 °F 44% 29.87 in 10.0 mi SW 10.4 mph 19.6 mph N/A   Clear
1:35 PM 82.2 °F - 57.0 °F 42% 29.86 in 10.0 mi WSW 9.2 mph 19.6 mph N/A   Clear
1:55 PM 82.6 °F - 57.0 °F 42% 29.85 in 10.0 mi SW 10.4 mph 17.3 mph N/A   Clear
2:15 PM 83.7 °F - 56.7 °F 40% 29.84 in 10.0 mi WSW 10.4 mph 18.4 mph N/A   Clear
2:35 PM 84.2 °F - 56.5 °F 39% 29.83 in 10.0 mi West 9.2 mph - N/A   Clear
2:55 PM 84.4 °F - 56.3 °F 38% 29.83 in 10.0 mi SW 6.9 mph - N/A   Clear
3:15 PM 85.3 °F - 56.5 °F 37% 29.82 in 10.0 mi WSW 8.1 mph - N/A   Clear
3:35 PM 84.9 °F - 56.3 °F 37% 29.81 in 10.0 mi West 5.8 mph - N/A   Clear
3:55 PM 85.5 °F - 56.3 °F 37% 29.81 in 10.0 mi West 5.8 mph - N/A   Clear
4:15 PM 85.1 °F - 56.1 °F 37% 29.80 in 10.0 mi Calm Calm - N/A   Clear
4:35 PM 85.5 °F - 55.9 °F 36% 29.80 in 10.0 mi West 3.5 mph - N/A   Clear
4:55 PM 85.6 °F - 60.8 °F 43% 29.80 in 10.0 mi SSE 15.0 mph - N/A   Clear
5:15 PM 83.5 °F - 61.9 °F 48% 29.81 in 10.0 mi SE 15.0 mph - N/A   Clear
5:35 PM 81.7 °F - 62.6 °F 52% 29.81 in 10.0 mi SE 15.0 mph - N/A   Clear
5:55 PM 79.9 °F - 62.6 °F 55% 29.82 in 10.0 mi SE 13.8 mph - N/A   Clear
6:15 PM 77.9 °F - 62.6 °F 59% 29.82 in 10.0 mi SE 13.8 mph 18.4 mph N/A   Clear
6:35 PM 75.9 °F - 62.6 °F 63% 29.82 in 10.0 mi SE 13.8 mph - N/A   Clear
6:55 PM 74.1 °F - 62.8 °F 68% 29.83 in 10.0 mi SE 10.4 mph 19.6 mph N/A   Clear
7:15 PM 72.0 °F - 63.0 °F 73% 29.84 in 10.0 mi SE 11.5 mph 19.6 mph N/A   Clear
7:35 PM 70.9 °F - 63.1 °F 76% 29.85 in 10.0 mi SE 9.2 mph - N/A   Clear
7:55 PM 70.0 °F - 63.3 °F 79% 29.86 in 10.0 mi SE 10.4 mph - N/A   Clear
8:15 PM 69.1 °F - 63.0 °F 81% 29.86 in 10.0 mi SSE 15.0 mph - N/A   Clear
8:35 PM 68.4 °F - 63.0 °F 83% 29.87 in 10.0 mi SSE 13.8 mph - N/A   Clear
8:55 PM 68.0 °F - 63.1 °F 84% 29.88 in 10.0 mi SSE 10.4 mph - N/A   Clear
9:15 PM 68.0 °F - 63.5 °F 85% 29.88 in 10.0 mi SSE 10.4 mph - N/A   Clear
9:35 PM 67.6 °F - 63.5 °F 87% 29.89 in 10.0 mi SSE 11.5 mph - N/A   Clear
9:55 PM 67.8 °F - 63.7 °F 87% 29.89 in 10.0 mi SSE 11.5 mph - N/A   Clear
10:15 PM 68.0 °F - 64.4 °F 88% 29.89 in 10.0 mi South 13.8 mph - N/A   Clear
10:30 PM 68.0 °F - 64.4 °F 88% 29.89 in 10.0 mi South 12.7 mph - N/A   Clear
10:55 PM 67.5 °F - 64.4 °F 90% 29.90 in 10.0 mi South 10.4 mph - N/A   Clear
11:15 PM 66.9 °F - 63.9 °F 90% 29.90 in 10.0 mi South 10.4 mph - N/A   Clear
11:35 PM 66.2 °F - 63.5 °F 91% 29.90 in 10.0 mi South 10.4 mph - N/A   Clear
11:55 PM 65.3 °F - 63.1 °F 93% 29.90 in 10.0 mi South 9.2 mph - N/A   Clear